Location: Fornova de Taro
(44.7000°N, 10.1000°E)
Time: 20:54:08
(UTC+00:00)

CRYOSAT 2 - Pass Details

Date: 26 May 2022
Orbit: 716 x 723 km, 92.0° (Epoch: 02 July)

Event Time Altitude Azimuth Distance (km) Brightness Sun altitude
Exits shadow 01:36:44 25° 183° (S) 1,442 5.4 -16.8°
Maximum altitude 01:39:38 76° 266° (W) 747 4.3 -16.6°
Drops below altitude 10° 01:44:33 10° 352° (N) 2,221 7.6 -16.1°
Sets 01:46:52 0° 354° (N) 3,147 8.5 -15.8°
